Time,TemperatureF,DewpointF,PressureIn,WindDirection,WindDirectionDegrees,WindSpeedMPH,WindSpeedGustMPH,Humidity,HourlyPrecipIn,Conditions,Clouds,dailyrainin,SoftwareType,DateUTC
2013-01-29 00:02:00,42.4,36.7,30.27,NW,312,0.0,0.0,80,0.00,,,0.00,VWS V14.01,2013-01-29 08:02:00,
2013-01-29 00:07:00,42.2,36.5,30.27,NW,312,0.0,0.0,80,0.00,,,0.00,VWS V14.01,2013-01-29 08:07:00,
2013-01-29 00:12:00,42.2,36.5,30.27,NW,312,0.0,0.0,80,0.00,,,0.00,VWS V14.01,2013-01-29 08:12:00,
2013-01-29 00:17:00,42.1,36.7,30.27,NW,312,0.0,0.0,81,0.00,,,0.00,VWS V14.01,2013-01-29 08:17:00,
2013-01-29 00:22:00,42.0,36.3,30.27,NW,312,0.0,0.0,80,0.00,,,0.00,VWS V14.01,2013-01-29 08:22:00,
2013-01-29 00:27:00,41.9,36.5,30.27,NW,312,0.0,0.0,81,0.00,,,0.00,VWS V14.01,2013-01-29 08:27:00,
2013-01-29 00:32:00,41.7,36.3,30.27,NW,312,0.0,0.0,81,0.00,,,0.00,VWS V14.01,2013-01-29 08:32:00,
2013-01-29 00:37:00,41.5,36.1,30.27,NW,312,0.0,0.0,81,0.00,,,0.00,VWS V14.01,2013-01-29 08:37:00,
2013-01-29 00:42:00,41.2,36.1,30.27,NW,312,0.0,0.0,82,0.00,,,0.00,VWS V14.01,2013-01-29 08:42:00,
2013-01-29 00:47:00,41.0,35.9,30.27,NW,312,0.0,0.0,82,0.00,,,0.00,VWS V14.01,2013-01-29 08:47:00,
2013-01-29 00:52:00,40.8,35.7,30.27,NW,312,0.0,0.0,82,0.00,,,0.00,VWS V14.01,2013-01-29 08:52:00,
2013-01-29 00:57:00,40.6,35.5,30.27,NW,312,0.0,0.0,82,0.00,,,0.00,VWS V14.01,2013-01-29 08:57:00,
2013-01-29 01:02:00,40.4,35.7,30.27,NW,312,0.0,0.0,83,0.00,,,0.00,VWS V14.01,2013-01-29 09:02:00,
2013-01-29 01:07:00,40.2,35.5,30.27,NW,312,0.0,0.0,83,0.00,,,0.00,VWS V14.01,2013-01-29 09:07:00,
2013-01-29 01:12:00,40.1,35.4,30.27,NW,312,0.0,0.0,83,0.00,,,0.00,VWS V14.01,2013-01-29 09:12:00,
2013-01-29 01:17:00,39.9,35.5,30.27,NW,312,0.0,0.0,84,0.00,,,0.00,VWS V14.01,2013-01-29 09:17:00,
2013-01-29 01:22:00,39.8,35.4,30.27,NW,312,0.0,0.0,84,0.00,,,0.00,VWS V14.01,2013-01-29 09:22:00,
2013-01-29 01:27:00,39.7,35.6,30.27,NW,312,0.0,0.0,85,0.00,,,0.00,VWS V14.01,2013-01-29 09:27:00,
2013-01-29 01:32:00,39.6,35.5,30.27,NW,312,0.0,0.0,85,0.00,,,0.00,VWS V14.01,2013-01-29 09:32:00,
2013-01-29 01:37:00,39.5,35.4,30.27,NW,312,0.0,0.0,85,0.00,,,0.00,VWS V14.01,2013-01-29 09:37:00,
2013-01-29 01:42:00,39.3,35.2,30.28,NW,312,0.0,0.0,85,0.00,,,0.00,VWS V14.01,2013-01-29 09:42:00,
2013-01-29 01:47:00,39.2,35.4,30.28,NW,312,0.0,0.0,86,0.00,,,0.00,VWS V14.01,2013-01-29 09:47:00,
2013-01-29 01:52:00,39.1,35.3,30.28,NW,312,0.0,0.0,86,0.00,,,0.00,VWS V14.01,2013-01-29 09:52:00,
2013-01-29 01:57:00,39.0,35.2,30.28,NW,312,0.0,0.0,86,0.00,,,0.00,VWS V14.01,2013-01-29 09:57:00,
2013-01-29 02:02:00,38.9,35.1,30.27,NW,312,0.0,0.0,86,0.00,,,0.00,VWS V14.01,2013-01-29 10:02:00,
2013-01-29 02:07:00,38.8,35.3,30.28,NW,312,0.0,0.0,87,0.00,,,0.00,VWS V14.01,2013-01-29 10:07:00,
2013-01-29 02:12:00,38.8,35.3,30.28,NW,312,0.0,0.0,87,0.00,,,0.00,VWS V14.01,2013-01-29 10:12:00,
2013-01-29 02:17:00,38.8,35.3,30.28,NW,312,0.0,0.0,87,0.00,,,0.00,VWS V14.01,2013-01-29 10:17:00,
2013-01-29 02:22:00,38.7,35.2,30.28,NW,312,0.0,0.0,87,0.00,,,0.00,VWS V14.01,2013-01-29 10:22:00,
2013-01-29 02:27:00,38.7,35.2,30.28,NW,312,0.0,0.0,87,0.00,,,0.00,VWS V14.01,2013-01-29 10:27:00,
2013-01-29 02:32:00,38.5,35.0,30.28,NW,312,0.0,0.0,87,0.00,,,0.00,VWS V14.01,2013-01-29 10:32:00,
2013-01-29 02:37:00,38.5,35.0,30.28,NW,312,0.0,0.0,87,0.00,,,0.00,VWS V14.01,2013-01-29 10:37:00,
2013-01-29 02:42:00,38.5,35.0,30.28,NW,312,0.0,0.0,87,0.00,,,0.00,VWS V14.01,2013-01-29 10:42:00,
2013-01-29 02:47:00,38.5,35.3,30.28,NW,312,0.0,0.0,88,0.00,,,0.00,VWS V14.01,2013-01-29 10:47:00,
2013-01-29 02:52:00,38.4,35.2,30.28,NW,312,0.0,0.0,88,0.00,,,0.00,VWS V14.01,2013-01-29 10:52:00,
2013-01-29 02:57:00,38.3,35.1,30.28,NW,312,0.0,0.0,88,0.00,,,0.00,VWS V14.01,2013-01-29 10:57:00,
2013-01-29 03:02:00,38.3,35.1,30.28,NW,312,0.0,0.0,88,0.00,,,0.00,VWS V14.01,2013-01-29 11:02:00,
2013-01-29 03:07:00,38.3,35.1,30.28,NW,312,0.0,0.0,88,0.00,,,0.00,VWS V14.01,2013-01-29 11:07:00,
2013-01-29 03:12:00,38.3,35.1,30.28,NW,312,0.0,0.0,88,0.00,,,0.00,VWS V14.01,2013-01-29 11:12:00,
2013-01-29 03:17:00,38.2,35.0,30.28,NW,312,0.0,0.0,88,0.00,,,0.00,VWS V14.01,2013-01-29 11:17:00,
2013-01-29 03:22:00,38.2,35.0,30.28,NW,312,0.0,0.0,88,0.00,,,0.00,VWS V14.01,2013-01-29 11:22:00,
2013-01-29 03:27:00,38.2,35.0,30.28,NW,312,0.0,0.0,88,0.00,,,0.00,VWS V14.01,2013-01-29 11:27:00,
2013-01-29 03:32:00,38.3,35.1,30.28,NW,312,0.0,0.0,88,0.00,,,0.00,VWS V14.01,2013-01-29 11:32:00,
2013-01-29 03:37:00,38.3,35.1,30.28,NW,312,0.0,0.0,88,0.00,,,0.00,VWS V14.01,2013-01-29 11:37:00,
2013-01-29 03:42:00,38.4,35.5,30.28,NW,312,0.0,0.0,89,0.00,,,0.00,VWS V14.01,2013-01-29 11:42:00,
2013-01-29 03:47:00,38.4,35.5,30.28,NW,312,0.0,0.0,89,0.00,,,0.00,VWS V14.01,2013-01-29 11:47:00,
2013-01-29 03:52:00,38.3,35.3,30.28,NW,312,0.0,0.0,89,0.00,,,0.00,VWS V14.01,2013-01-29 11:52:00,
2013-01-29 03:57:00,38.3,35.3,30.28,NW,312,0.0,0.0,89,0.00,,,0.00,VWS V14.01,2013-01-29 11:57:00,
2013-01-29 04:02:00,38.2,35.2,30.29,NW,312,0.0,0.0,89,0.00,,,0.00,VWS V14.01,2013-01-29 12:02:00,
2013-01-29 04:07:00,38.2,35.2,30.29,NW,312,0.0,0.0,89,0.00,,,0.00,VWS V14.01,2013-01-29 12:07:00,
2013-01-29 04:12:00,38.4,35.5,30.28,NW,312,0.0,0.0,89,0.00,,,0.00,VWS V14.01,2013-01-29 12:12:00,
2013-01-29 04:17:00,38.4,35.5,30.28,NW,312,0.0,0.0,89,0.00,,,0.00,VWS V14.01,2013-01-29 12:17:00,
2013-01-29 04:22:00,38.3,35.3,30.28,NW,312,0.0,0.0,89,0.00,,,0.00,VWS V14.01,2013-01-29 12:22:00,
2013-01-29 04:27:00,38.4,35.5,30.28,NW,312,0.0,0.0,89,0.00,,,0.00,VWS V14.01,2013-01-29 12:27:00,
2013-01-29 04:32:00,38.4,35.5,30.29,NW,312,0.0,0.0,89,0.00,,,0.00,VWS V14.01,2013-01-29 12:32:00,
2013-01-29 04:37:00,38.4,35.5,30.29,NW,312,0.0,0.0,89,0.00,,,0.00,VWS V14.01,2013-01-29 12:37:00,
2013-01-29 04:41:00,38.4,35.5,30.29,NW,312,0.0,0.0,89,0.00,,,0.00,VWS V14.01,2013-01-29 12:41:00,
2013-01-29 04:46:00,38.4,35.5,30.29,NW,312,0.0,0.0,89,0.00,,,0.00,VWS V14.01,2013-01-29 12:46:00,
2013-01-29 04:51:00,38.4,35.5,30.29,NW,312,0.0,0.0,89,0.00,,,0.00,VWS V14.01,2013-01-29 12:51:00,
2013-01-29 04:56:00,38.3,35.3,30.29,NW,312,0.0,0.0,89,0.00,,,0.00,VWS V14.01,2013-01-29 12:56:00,
2013-01-29 05:01:00,38.3,35.3,30.29,NW,312,0.0,0.0,89,0.00,,,0.00,VWS V14.01,2013-01-29 13:01:00,
2013-01-29 05:06:00,38.3,35.3,30.29,NW,312,0.0,0.0,89,0.00,,,0.00,VWS V14.01,2013-01-29 13:06:00,
2013-01-29 05:11:00,38.3,35.3,30.29,NW,312,0.0,0.0,89,0.00,,,0.00,VWS V14.01,2013-01-29 13:11:00,
2013-01-29 05:16:00,38.4,35.5,30.29,NW,312,0.0,0.0,89,0.00,,,0.00,VWS V14.01,2013-01-29 13:16:00,
2013-01-29 05:21:00,38.5,35.8,30.30,NW,312,0.0,0.0,90,0.00,,,0.00,VWS V14.01,2013-01-29 13:21:00,
2013-01-29 05:26:00,38.6,35.9,30.30,NW,312,0.0,0.0,90,0.00,,,0.00,VWS V14.01,2013-01-29 13:26:00,
2013-01-29 05:31:00,38.7,36.0,30.30,NW,312,0.0,0.0,90,0.00,,,0.00,VWS V14.01,2013-01-29 13:31:00,
2013-01-29 05:36:00,38.7,36.0,30.30,NW,312,0.0,0.0,90,0.00,,,0.00,VWS V14.01,2013-01-29 13:36:00,
2013-01-29 05:41:00,38.7,36.0,30.30,NW,312,0.0,0.0,90,0.00,,,0.00,VWS V14.01,2013-01-29 13:41:00,
2013-01-29 05:46:00,38.6,35.9,30.30,NW,312,0.0,0.0,90,0.00,,,0.00,VWS V14.01,2013-01-29 13:46:00,
2013-01-29 05:51:00,38.5,35.8,30.30,NW,312,0.0,0.0,90,0.00,,,0.00,VWS V14.01,2013-01-29 13:51:00,
2013-01-29 05:56:00,38.4,35.7,30.30,NW,312,0.0,0.0,90,0.00,,,0.00,VWS V14.01,2013-01-29 13:56:00,
2013-01-29 06:01:00,38.4,35.7,30.31,NW,312,0.0,0.0,90,0.00,,,0.00,VWS V14.01,2013-01-29 14:01:00,
2013-01-29 06:06:00,38.3,35.6,30.31,NW,312,0.0,0.0,90,0.00,,,0.00,VWS V14.01,2013-01-29 14:06:00,
2013-01-29 06:11:00,38.2,35.5,30.31,NW,312,0.0,0.0,90,0.00,,,0.00,VWS V14.01,2013-01-29 14:11:00,
2013-01-29 06:16:00,38.2,35.5,30.31,NW,312,0.0,0.0,90,0.00,,,0.00,VWS V14.01,2013-01-29 14:16:00,
2013-01-29 06:21:00,38.1,35.2,30.31,NW,312,0.0,0.0,89,0.00,,,0.00,VWS V14.01,2013-01-29 14:21:00,
2013-01-29 06:26:00,38.0,35.0,30.30,NW,312,0.0,0.0,89,0.00,,,0.00,VWS V14.01,2013-01-29 14:26:00,
2013-01-29 06:31:00,37.8,34.9,30.31,NW,312,0.0,0.0,89,0.00,,,0.00,VWS V14.01,2013-01-29 14:31:00,
2013-01-29 06:36:00,37.7,35.0,30.31,NW,312,0.0,0.0,90,0.00,,,0.00,VWS V14.01,2013-01-29 14:36:00,
2013-01-29 06:41:00,37.7,35.0,30.31,NW,312,0.0,0.0,90,0.00,,,0.00,VWS V14.01,2013-01-29 14:41:00,
2013-01-29 06:46:00,37.6,34.9,30.31,NW,312,0.0,0.0,90,0.00,,,0.00,VWS V14.01,2013-01-29 14:46:00,
2013-01-29 06:51:00,37.6,34.9,30.31,NW,312,0.0,0.0,90,0.00,,,0.00,VWS V14.01,2013-01-29 14:51:00,
2013-01-29 06:56:00,37.6,34.9,30.32,NW,312,0.0,0.0,90,0.00,,,0.00,VWS V14.01,2013-01-29 14:56:00,
2013-01-29 07:01:00,37.6,34.9,30.32,NW,312,0.0,0.0,90,0.00,,,0.00,VWS V14.01,2013-01-29 15:01:00,
2013-01-29 07:06:00,37.6,34.9,30.32,NW,312,0.0,0.0,90,0.00,,,0.00,VWS V14.01,2013-01-29 15:06:00,
2013-01-29 07:11:00,37.6,34.9,30.32,NW,312,0.0,0.0,90,0.00,,,0.00,VWS V14.01,2013-01-29 15:11:00,
2013-01-29 07:16:00,37.6,34.9,30.32,NW,312,0.0,0.0,90,0.00,,,0.00,VWS V14.01,2013-01-29 15:16:00,
2013-01-29 07:21:00,37.6,34.9,30.32,NW,312,0.0,0.0,90,0.00,,,0.00,VWS V14.01,2013-01-29 15:21:00,
2013-01-29 07:26:00,37.6,34.9,30.32,NW,312,0.0,0.0,90,0.00,,,0.00,VWS V14.01,2013-01-29 15:26:00,
2013-01-29 07:31:00,37.6,34.9,30.33,NW,312,0.0,0.0,90,0.00,,,0.00,VWS V14.01,2013-01-29 15:31:00,
2013-01-29 07:36:00,37.6,34.9,30.33,NW,312,0.0,0.0,90,0.00,,,0.00,VWS V14.01,2013-01-29 15:36:00,
2013-01-29 07:41:00,37.6,34.9,30.33,NW,312,0.0,0.0,90,0.00,,,0.00,VWS V14.01,2013-01-29 15:41:00,
2013-01-29 07:46:00,37.2,34.8,30.33,NW,312,0.0,0.0,91,0.00,,,0.00,VWS V14.01,2013-01-29 15:46:00,
2013-01-29 07:51:00,37.2,34.8,30.33,NW,312,0.0,0.0,91,0.00,,,0.00,VWS V14.01,2013-01-29 15:51:00,
2013-01-29 07:56:00,37.4,35.0,30.33,NW,312,0.0,0.0,91,0.00,,,0.00,VWS V14.01,2013-01-29 15:56:00,
2013-01-29 08:01:00,37.5,35.1,30.33,NW,312,0.0,0.0,91,0.00,,,0.00,VWS V14.01,2013-01-29 16:01:00,
2013-01-29 08:06:00,37.6,35.2,30.33,NW,312,0.0,0.0,91,0.00,,,0.00,VWS V14.01,2013-01-29 16:06:00,
2013-01-29 08:11:00,37.7,35.3,30.33,NW,312,0.0,0.0,91,0.00,,,0.00,VWS V14.01,2013-01-29 16:11:00,
2013-01-29 08:16:00,38.0,35.6,30.33,NW,312,0.0,0.0,91,0.00,,,0.00,VWS V14.01,2013-01-29 16:16:00,
2013-01-29 08:21:00,38.3,35.9,30.34,NW,312,0.0,0.0,91,0.00,,,0.00,VWS V14.01,2013-01-29 16:21:00,
2013-01-29 08:26:00,38.7,36.6,30.34,NW,312,0.0,0.0,92,0.00,,,0.00,VWS V14.01,2013-01-29 16:26:00,
2013-01-29 08:31:00,38.9,36.8,30.33,NW,312,0.0,0.0,92,0.00,,,0.00,VWS V14.01,2013-01-29 16:31:00,
2013-01-29 08:36:00,39.1,37.0,30.33,NW,312,0.0,0.0,92,0.00,,,0.00,VWS V14.01,2013-01-29 16:36:00,
2013-01-29 08:41:00,39.5,37.4,30.34,NW,312,0.0,0.0,92,0.00,,,0.00,VWS V14.01,2013-01-29 16:41:00,
2013-01-29 08:46:00,39.9,37.8,30.33,NW,312,0.0,0.0,92,0.00,,,0.00,VWS V14.01,2013-01-29 16:46:00,
2013-01-29 08:51:00,40.4,38.3,30.34,NW,312,0.0,0.0,92,0.00,,,0.00,VWS V14.01,2013-01-29 16:51:00,
2013-01-29 08:56:00,40.8,38.7,30.34,NW,312,0.0,0.0,92,0.00,,,0.00,VWS V14.01,2013-01-29 16:56:00,
2013-01-29 09:01:00,41.3,39.2,30.34,NW,312,0.0,0.0,92,0.00,,,0.00,VWS V14.01,2013-01-29 17:01:00,
2013-01-29 09:06:00,41.8,39.7,30.34,NW,312,0.0,0.0,92,0.00,,,0.00,VWS V14.01,2013-01-29 17:06:00,
2013-01-29 09:11:00,42.3,39.9,30.34,NW,312,0.0,0.0,91,0.00,,,0.00,VWS V14.01,2013-01-29 17:11:00,
2013-01-29 09:16:00,42.8,40.4,30.34,NW,312,0.0,0.0,91,0.00,,,0.00,VWS V14.01,2013-01-29 17:16:00,
2013-01-29 09:21:00,43.3,40.6,30.34,NW,312,0.0,0.0,90,0.00,,,0.00,VWS V14.01,2013-01-29 17:21:00,
2013-01-29 09:26:00,43.7,40.7,30.34,NW,312,0.0,0.0,89,0.00,,,0.00,VWS V14.01,2013-01-29 17:26:00,
2013-01-29 09:31:00,44.2,40.9,30.34,NW,312,0.0,2.0,88,0.00,,,0.00,VWS V14.01,2013-01-29 17:31:00,
2013-01-29 09:36:00,44.7,41.1,30.34,NW,312,0.0,2.0,87,0.00,,,0.00,VWS V14.01,2013-01-29 17:36:00,
2013-01-29 09:41:00,45.0,41.1,30.34,NW,312,0.0,2.0,86,0.00,,,0.00,VWS V14.01,2013-01-29 17:41:00,
2013-01-29 09:46:00,45.4,41.2,30.34,NW,312,0.0,3.0,85,0.00,,,0.00,VWS V14.01,2013-01-29 17:46:00,
2013-01-29 09:51:00,45.7,41.2,30.35,NW,312,2.0,4.0,84,0.00,,,0.00,VWS V14.01,2013-01-29 17:51:00,
2013-01-29 09:56:00,46.1,41.5,30.35,NW,312,0.0,4.0,84,0.00,,,0.00,VWS V14.01,2013-01-29 17:56:00,
2013-01-29 10:01:00,46.4,41.8,30.35,NW,312,1.0,4.0,84,0.00,,,0.00,VWS V14.01,2013-01-29 18:01:00,
2013-01-29 10:06:00,46.7,42.1,30.35,NW,312,4.0,5.0,84,0.00,,,0.00,VWS V14.01,2013-01-29 18:06:00,
2013-01-29 10:11:00,47.1,42.5,30.35,NW,312,5.0,7.0,84,0.00,,,0.00,VWS V14.01,2013-01-29 18:11:00,
2013-01-29 10:16:00,47.5,42.6,30.35,NW,312,3.0,7.0,83,0.00,,,0.00,VWS V14.01,2013-01-29 18:16:00,
2013-01-29 10:21:00,48.0,43.1,30.35,NW,312,0.0,7.0,83,0.00,,,0.00,VWS V14.01,2013-01-29 18:21:00,
2013-01-29 10:26:00,48.6,43.4,30.35,NW,312,3.0,7.0,82,0.00,,,0.00,VWS V14.01,2013-01-29 18:26:00,
2013-01-29 10:31:00,49.0,43.1,30.35,NW,312,3.0,7.0,80,0.00,,,0.00,VWS V14.01,2013-01-29 18:31:00,
2013-01-29 10:36:00,49.5,42.9,30.35,NW,312,3.0,7.0,78,0.00,,,0.00,VWS V14.01,2013-01-29 18:36:00,
2013-01-29 10:41:00,50.0,42.4,30.35,NW,312,3.0,10.0,75,0.00,,,0.00,VWS V14.01,2013-01-29 18:41:00,
2013-01-29 10:46:00,50.5,42.5,30.35,NW,312,2.0,10.0,74,0.00,,,0.00,VWS V14.01,2013-01-29 18:46:00,
2013-01-29 10:51:00,51.1,42.4,30.34,NW,312,3.0,11.0,72,0.00,,,0.00,VWS V14.01,2013-01-29 18:51:00,
2013-01-29 10:56:00,51.6,41.8,30.35,NW,312,5.0,11.0,69,0.00,,,0.00,VWS V14.01,2013-01-29 18:56:00,
2013-01-29 11:01:00,52.0,41.4,30.35,NW,312,6.0,11.0,67,0.00,,,0.00,VWS V14.01,2013-01-29 19:01:00,
2013-01-29 11:05:00,52.4,41.0,30.35,NW,312,4.0,10.0,65,0.00,,,0.00,VWS V14.01,2013-01-29 19:05:00,
2013-01-29 11:10:00,52.4,40.6,30.35,NW,315,10.0,10.0,64,0.00,,,0.00,VWS V14.01,2013-01-29 19:10:00,
2013-01-29 11:15:00,52.3,40.9,30.35,NW,317,5.0,11.0,65,0.00,,,0.00,VWS V14.01,2013-01-29 19:15:00,
2013-01-29 11:20:00,52.4,41.4,30.34,NW,317,3.0,11.0,66,0.00,,,0.00,VWS V14.01,2013-01-29 19:20:00,
2013-01-29 11:25:00,52.5,41.5,30.34,NW,317,6.0,11.0,66,0.00,,,0.00,VWS V14.01,2013-01-29 19:25:00,
2013-01-29 11:30:00,52.8,41.8,30.34,NW,317,0.0,11.0,66,0.00,,,0.00,VWS V14.01,2013-01-29 19:30:00,
2013-01-29 11:35:00,53.4,41.5,30.34,NW,319,4.0,11.0,64,0.00,,,0.00,VWS V14.01,2013-01-29 19:35:00,
2013-01-29 11:40:00,53.7,41.0,30.33,NW,320,9.0,11.0,62,0.00,,,0.00,VWS V14.01,2013-01-29 19:40:00,
2013-01-29 11:45:00,53.5,40.8,30.33,NNW,327,4.0,12.0,62,0.00,,,0.00,VWS V14.01,2013-01-29 19:45:00,
2013-01-29 11:50:00,53.6,40.5,30.33,NNW,329,7.0,12.0,61,0.00,,,0.00,VWS V14.01,2013-01-29 19:50:00,
2013-01-29 11:55:00,53.9,40.3,30.33,NW,325,6.0,12.0,60,0.00,,,0.00,VWS V14.01,2013-01-29 19:55:00,
2013-01-29 11:57:00,53.9,40.8,30.33,NW,325,5.0,12.0,61,0.00,,,0.00,VWS V14.01,2013-01-29 19:57:00,
2013-01-29 12:02:00,54.2,41.9,30.33,NW,325,9.0,12.0,63,0.00,,,0.00,VWS V14.01,2013-01-29 20:02:00,
2013-01-29 12:07:00,54.5,42.2,30.33,NNW,327,4.0,10.0,63,0.00,,,0.00,VWS V14.01,2013-01-29 20:07:00,
2013-01-29 12:12:00,54.8,42.9,30.32,NNW,327,7.0,10.0,64,0.00,,,0.00,VWS V14.01,2013-01-29 20:12:00,
2013-01-29 12:17:00,54.9,41.7,30.32,NW,321,4.0,13.0,61,0.00,,,0.00,VWS V14.01,2013-01-29 20:17:00,
2013-01-29 12:22:00,54.9,41.3,30.32,North,360,9.0,14.0,60,0.00,,,0.00,VWS V14.01,2013-01-29 20:22:00,
2013-01-29 12:27:00,55.1,41.0,30.31,NW,319,3.0,14.0,59,0.00,,,0.00,VWS V14.01,2013-01-29 20:27:00,
2013-01-29 12:32:00,55.5,41.4,30.32,NW,319,4.0,14.0,59,0.00,,,0.00,VWS V14.01,2013-01-29 20:32:00,
2013-01-29 12:37:00,55.9,41.3,30.31,NW,319,5.0,14.0,58,0.00,,,0.00,VWS V14.01,2013-01-29 20:37:00,
2013-01-29 12:42:00,56.2,40.7,30.31,NW,319,3.0,14.0,56,0.00,,,0.00,VWS V14.01,2013-01-29 20:42:00,
2013-01-29 12:47:00,56.5,41.0,30.30,NW,319,3.0,15.0,56,0.00,,,0.00,VWS V14.01,2013-01-29 20:47:00,
2013-01-29 12:52:00,56.7,40.3,30.30,NW,317,6.0,15.0,54,0.00,,,0.00,VWS V14.01,2013-01-29 20:52:00,
2013-01-29 12:57:00,56.3,38.4,30.30,NW,324,12.0,15.0,51,0.00,,,0.00,VWS V14.01,2013-01-29 20:57:00,
2013-01-29 13:02:00,56.3,39.4,30.29,NW,325,12.0,15.0,53,0.00,,,0.00,VWS V14.01,2013-01-29 21:02:00,
2013-01-29 13:07:00,56.5,41.0,30.29,NW,320,13.0,14.0,56,0.00,,,0.00,VWS V14.01,2013-01-29 21:07:00,
2013-01-29 13:12:00,56.9,41.4,30.29,NW,319,11.0,14.0,56,0.00,,,0.00,VWS V14.01,2013-01-29 21:12:00,
2013-01-29 13:17:00,57.0,41.0,30.28,NW,321,5.0,14.0,55,0.00,,,0.00,VWS V14.01,2013-01-29 21:17:00,
2013-01-29 13:22:00,56.9,41.4,30.28,NW,321,10.0,14.0,56,0.00,,,0.00,VWS V14.01,2013-01-29 21:22:00,
2013-01-29 13:26:00,57.3,41.3,30.28,NW,321,10.0,14.0,55,0.00,,,0.00,VWS V14.01,2013-01-29 21:26:00,
2013-01-29 13:32:00,57.7,41.7,30.28,NW,320,2.0,14.0,55,0.00,,,0.00,VWS V14.01,2013-01-29 21:32:00,
2013-01-29 13:37:00,58.3,41.8,30.28,NW,322,4.0,14.0,54,0.00,,,0.00,VWS V14.01,2013-01-29 21:37:00,
2013-01-29 13:42:00,58.7,41.1,30.28,NW,325,4.0,14.0,52,0.00,,,0.00,VWS V14.01,2013-01-29 21:42:00,
2013-01-29 13:47:00,59.0,40.9,30.28,NW,325,3.0,14.0,51,0.00,,,0.00,VWS V14.01,2013-01-29 21:47:00,
2013-01-29 13:52:00,59.0,41.4,30.27,NW,323,11.0,14.0,52,0.00,,,0.00,VWS V14.01,2013-01-29 21:52:00,
2013-01-29 13:57:00,59.0,41.4,30.27,NW,313,12.0,15.0,52,0.00,,,0.00,VWS V14.01,2013-01-29 21:57:00,
2013-01-29 14:02:00,59.0,41.4,30.27,NW,320,17.0,17.0,52,0.00,,,0.00,VWS V14.01,2013-01-29 22:02:00,
2013-01-29 14:07:00,59.1,41.5,30.26,NW,326,7.0,16.0,52,0.00,,,0.00,VWS V14.01,2013-01-29 22:07:00,
2013-01-29 14:12:00,59.3,41.2,30.26,NW,315,6.0,17.0,51,0.00,,,0.00,VWS V14.01,2013-01-29 22:12:00,
2013-01-29 14:17:00,59.6,41.0,30.26,NW,323,14.0,17.0,50,0.00,,,0.00,VWS V14.01,2013-01-29 22:17:00,
2013-01-29 14:21:00,59.7,39.5,30.26,NW,313,10.0,17.0,47,0.00,,,0.00,VWS V14.01,2013-01-29 22:21:00,
2013-01-29 14:26:00,59.6,39.4,30.26,NW,317,8.0,17.0,47,0.00,,,0.00,VWS V14.01,2013-01-29 22:26:00,
2013-01-29 14:31:00,59.5,39.8,30.25,NNW,327,5.0,19.0,48,0.00,,,0.00,VWS V14.01,2013-01-29 22:31:00,
2013-01-29 14:36:00,59.6,39.9,30.26,NNW,327,5.0,19.0,48,0.00,,,0.00,VWS V14.01,2013-01-29 22:36:00,
2013-01-29 14:41:00,59.7,40.0,30.26,NNW,327,8.0,19.0,48,0.00,,,0.00,VWS V14.01,2013-01-29 22:41:00,
2013-01-29 14:46:00,59.9,39.6,30.26,NNW,327,6.0,19.0,47,0.00,,,0.00,VWS V14.01,2013-01-29 22:46:00,
2013-01-29 14:51:00,60.0,39.7,30.26,NW,318,7.0,19.0,47,0.00,,,0.00,VWS V14.01,2013-01-29 22:51:00,
2013-01-29 14:56:00,60.0,39.7,30.26,NW,320,2.0,19.0,47,0.00,,,0.00,VWS V14.01,2013-01-29 22:56:00,
2013-01-29 15:01:00,60.4,39.5,30.26,NNW,334,9.0,19.0,46,0.00,,,0.00,VWS V14.01,2013-01-29 23:01:00,
2013-01-29 15:06:00,60.4,39.5,30.26,NNW,333,1.0,12.0,46,0.00,,,0.00,VWS V14.01,2013-01-29 23:06:00,
2013-01-29 15:11:00,60.4,39.0,30.26,NW,321,13.0,13.0,45,0.00,,,0.00,VWS V14.01,2013-01-29 23:11:00,
2013-01-29 15:16:00,60.3,38.9,30.26,NW,320,12.0,15.0,45,0.00,,,0.00,VWS V14.01,2013-01-29 23:16:00,
2013-01-29 15:21:00,60.2,39.4,30.26,NW,317,5.0,15.0,46,0.00,,,0.00,VWS V14.01,2013-01-29 23:21:00,
2013-01-29 15:26:00,60.3,39.5,30.25,NNW,330,6.0,16.0,46,0.00,,,0.00,VWS V14.01,2013-01-29 23:26:00,
2013-01-29 15:31:00,60.2,39.4,30.25,NNW,342,9.0,16.0,46,0.00,,,0.00,VWS V14.01,2013-01-29 23:31:00,
2013-01-29 15:36:00,60.2,39.9,30.25,NW,324,3.0,16.0,47,0.00,,,0.00,VWS V14.01,2013-01-29 23:36:00,
2013-01-29 15:41:00,60.2,39.4,30.26,NNW,333,4.0,16.0,46,0.00,,,0.00,VWS V14.01,2013-01-29 23:41:00,
2013-01-29 15:46:00,60.3,40.0,30.26,NNW,333,4.0,16.0,47,0.00,,,0.00,VWS V14.01,2013-01-29 23:46:00,
2013-01-29 15:51:00,60.2,40.5,30.25,NNW,330,7.0,16.0,48,0.00,,,0.00,VWS V14.01,2013-01-29 23:51:00,
2013-01-29 15:56:00,60.1,40.4,30.25,NNW,331,12.0,16.0,48,0.00,,,0.00,VWS V14.01,2013-01-29 23:56:00,
2013-01-29 16:01:00,60.0,40.8,30.25,NNW,327,9.0,16.0,49,0.00,,,0.00,VWS V14.01,2013-01-30 00:01:00,
2013-01-29 16:06:00,59.8,41.7,30.25,NW,323,1.0,10.0,51,0.00,,,0.00,VWS V14.01,2013-01-30 00:06:00,
2013-01-29 16:11:00,59.7,41.6,30.25,NW,326,5.0,11.0,51,0.00,,,0.00,VWS V14.01,2013-01-30 00:11:00,
2013-01-29 16:16:00,59.4,41.3,30.25,NNW,336,4.0,12.0,51,0.00,,,0.00,VWS V14.01,2013-01-30 00:16:00,
2013-01-29 16:21:00,59.3,42.2,30.25,NNW,340,7.0,12.0,53,0.00,,,0.00,VWS V14.01,2013-01-30 00:21:00,
2013-01-29 16:26:00,59.1,42.5,30.24,NNW,344,11.0,12.0,54,0.00,,,0.00,VWS V14.01,2013-01-30 00:26:00,
2013-01-29 16:31:00,59.0,41.9,30.24,NNW,340,5.0,12.0,53,0.00,,,0.00,VWS V14.01,2013-01-30 00:31:00,
2013-01-29 16:36:00,59.0,41.9,30.24,NNW,336,4.0,12.0,53,0.00,,,0.00,VWS V14.01,2013-01-30 00:36:00,
2013-01-29 16:41:00,59.0,41.9,30.24,NNW,333,2.0,12.0,53,0.00,,,0.00,VWS V14.01,2013-01-30 00:41:00,
2013-01-29 16:46:00,58.9,42.3,30.24,NNW,334,3.0,12.0,54,0.00,,,0.00,VWS V14.01,2013-01-30 00:46:00,
2013-01-29 16:51:00,58.8,42.7,30.24,NNW,334,5.0,12.0,55,0.00,,,0.00,VWS V14.01,2013-01-30 00:51:00,
2013-01-29 16:56:00,58.5,42.4,30.24,NNW,334,4.0,12.0,55,0.00,,,0.00,VWS V14.01,2013-01-30 00:56:00,
2013-01-29 17:01:00,58.2,42.6,30.25,NNW,334,3.0,12.0,56,0.00,,,0.00,VWS V14.01,2013-01-30 01:01:00,
2013-01-29 17:06:00,58.1,42.5,30.25,NNW,335,1.0,7.0,56,0.00,,,0.00,VWS V14.01,2013-01-30 01:06:00,
2013-01-29 17:11:00,57.9,42.8,30.25,NNW,335,2.0,7.0,57,0.00,,,0.00,VWS V14.01,2013-01-30 01:11:00,
2013-01-29 17:16:00,57.6,42.5,30.25,NNW,334,0.0,7.0,57,0.00,,,0.00,VWS V14.01,2013-01-30 01:16:00,
2013-01-29 17:21:00,57.3,42.2,30.25,NNW,334,0.0,7.0,57,0.00,,,0.00,VWS V14.01,2013-01-30 01:21:00,
2013-01-29 17:26:00,57.1,42.5,30.25,NNW,335,0.0,7.0,58,0.00,,,0.00,VWS V14.01,2013-01-30 01:26:00,
2013-01-29 17:31:00,56.7,42.5,30.25,NNW,335,1.0,7.0,59,0.00,,,0.00,VWS V14.01,2013-01-30 01:31:00,
2013-01-29 17:36:00,56.4,42.3,30.25,NNW,334,0.0,7.0,59,0.00,,,0.00,VWS V14.01,2013-01-30 01:36:00,
2013-01-29 17:41:00,56.2,42.5,30.25,NNW,334,0.0,7.0,60,0.00,,,0.00,VWS V14.01,2013-01-30 01:41:00,
2013-01-29 17:46:00,56.0,42.3,30.25,NNW,335,0.0,7.0,60,0.00,,,0.00,VWS V14.01,2013-01-30 01:46:00,
2013-01-29 17:51:00,55.9,42.2,30.25,NNW,334,0.0,7.0,60,0.00,,,0.00,VWS V14.01,2013-01-30 01:51:00,
2013-01-29 17:56:00,55.8,42.1,30.25,NNW,334,0.0,7.0,60,0.00,,,0.00,VWS V14.01,2013-01-30 01:56:00,
2013-01-29 18:01:00,55.6,42.0,30.25,NNW,335,0.0,7.0,60,0.00,,,0.00,VWS V14.01,2013-01-30 02:01:00,
2013-01-29 18:06:00,55.4,41.8,30.25,NNW,335,0.0,0.0,60,0.00,,,0.00,VWS V14.01,2013-01-30 02:06:00,
2013-01-29 18:11:00,55.2,41.6,30.26,NNW,334,0.0,0.0,60,0.00,,,0.00,VWS V14.01,2013-01-30 02:11:00,
2013-01-29 18:16:00,55.0,41.8,30.26,NNW,335,0.0,0.0,61,0.00,,,0.00,VWS V14.01,2013-01-30 02:16:00,
2013-01-29 18:21:00,54.8,41.6,30.26,NNW,335,0.0,0.0,61,0.00,,,0.00,VWS V14.01,2013-01-30 02:21:00,
2013-01-29 18:26:00,54.6,41.0,30.26,NNW,334,0.0,0.0,60,0.00,,,0.00,VWS V14.01,2013-01-30 02:26:00,
2013-01-29 18:31:00,54.4,41.2,30.27,NNW,335,0.0,0.0,61,0.00,,,0.00,VWS V14.01,2013-01-30 02:31:00,
2013-01-29 18:36:00,54.3,41.2,30.27,NNW,334,0.0,0.0,61,0.00,,,0.00,VWS V14.01,2013-01-30 02:36:00,
2013-01-29 18:41:00,54.2,41.1,30.27,NNW,334,0.0,0.0,61,0.00,,,0.00,VWS V14.01,2013-01-30 02:41:00,
2013-01-29 18:46:00,54.1,41.4,30.27,NNW,335,0.0,0.0,62,0.00,,,0.00,VWS V14.01,2013-01-30 02:46:00,
2013-01-29 18:51:00,53.8,41.1,30.27,NNW,334,0.0,0.0,62,0.00,,,0.00,VWS V14.01,2013-01-30 02:51:00,
2013-01-29 18:56:00,53.6,41.3,30.27,NNW,335,0.0,0.0,63,0.00,,,0.00,VWS V14.01,2013-01-30 02:56:00,
2013-01-29 19:01:00,53.2,41.3,30.28,NNW,335,0.0,0.0,64,0.00,,,0.00,VWS V14.01,2013-01-30 03:01:00,
2013-01-29 19:06:00,52.8,41.0,30.28,NNW,335,0.0,0.0,64,0.00,,,0.00,VWS V14.01,2013-01-30 03:06:00,
2013-01-29 19:11:00,52.7,40.9,30.28,NNW,334,0.0,0.0,64,0.00,,,0.00,VWS V14.01,2013-01-30 03:11:00,
2013-01-29 19:16:00,52.5,41.1,30.28,NNW,335,0.0,0.0,65,0.00,,,0.00,VWS V14.01,2013-01-30 03:16:00,
2013-01-29 19:21:00,52.2,40.8,30.28,NNW,335,0.0,0.0,65,0.00,,,0.00,VWS V14.01,2013-01-30 03:21:00,
2013-01-29 19:26:00,51.7,40.7,30.28,NNW,334,0.0,0.0,66,0.00,,,0.00,VWS V14.01,2013-01-30 03:26:00,
2013-01-29 19:31:00,51.5,40.5,30.29,NNW,334,0.0,0.0,66,0.00,,,0.00,VWS V14.01,2013-01-30 03:31:00,
2013-01-29 19:36:00,51.4,40.8,30.28,NNW,334,0.0,0.0,67,0.00,,,0.00,VWS V14.01,2013-01-30 03:36:00,
2013-01-29 19:41:00,51.2,40.6,30.28,NNW,334,0.0,0.0,67,0.00,,,0.00,VWS V14.01,2013-01-30 03:41:00,
2013-01-29 19:46:00,50.9,40.7,30.28,NNW,334,0.0,0.0,68,0.00,,,0.00,VWS V14.01,2013-01-30 03:46:00,
2013-01-29 19:51:00,50.6,40.4,30.28,NNW,334,0.0,0.0,68,0.00,,,0.00,VWS V14.01,2013-01-30 03:51:00,
2013-01-29 19:56:00,50.5,40.7,30.28,NNW,334,0.0,0.0,69,0.00,,,0.00,VWS V14.01,2013-01-30 03:56:00,
2013-01-29 20:01:00,50.3,40.5,30.28,NNW,335,0.0,0.0,69,0.00,,,0.00,VWS V14.01,2013-01-30 04:01:00,
2013-01-29 20:06:00,50.0,40.2,30.28,NNW,335,0.0,0.0,69,0.00,,,0.00,VWS V14.01,2013-01-30 04:06:00,
2013-01-29 20:11:00,49.8,40.4,30.29,NNW,334,0.0,0.0,70,0.00,,,0.00,VWS V14.01,2013-01-30 04:11:00,
2013-01-29 20:16:00,49.6,40.6,30.29,NNW,334,0.0,0.0,71,0.00,,,0.00,VWS V14.01,2013-01-30 04:16:00,
2013-01-29 20:21:00,49.4,40.8,30.29,NNW,334,0.0,0.0,72,0.00,,,0.00,VWS V14.01,2013-01-30 04:21:00,
2013-01-29 20:26:00,49.3,40.3,30.29,NNW,335,0.0,0.0,71,0.00,,,0.00,VWS V14.01,2013-01-30 04:26:00,
2013-01-29 20:31:00,49.1,40.5,30.29,NNW,334,0.0,0.0,72,0.00,,,0.00,VWS V14.01,2013-01-30 04:31:00,
2013-01-29 20:36:00,48.8,40.2,30.29,NNW,334,0.0,0.0,72,0.00,,,0.00,VWS V14.01,2013-01-30 04:36:00,
2013-01-29 20:41:00,48.6,40.0,30.29,NNW,335,0.0,0.0,72,0.00,,,0.00,VWS V14.01,2013-01-30 04:41:00,
2013-01-29 20:45:00,48.5,40.2,30.29,NNW,334,0.0,0.0,73,0.00,,,0.00,VWS V14.01,2013-01-30 04:45:00,
2013-01-29 20:50:00,48.3,40.4,30.29,NNW,335,0.0,0.0,74,0.00,,,0.00,VWS V14.01,2013-01-30 04:50:00,
2013-01-29 20:55:00,48.3,40.4,30.29,NNW,335,0.0,0.0,74,0.00,,,0.00,VWS V14.01,2013-01-30 04:55:00,
2013-01-29 21:00:00,48.2,40.3,30.29,NNW,334,0.0,0.0,74,0.00,,,0.00,VWS V14.01,2013-01-30 05:00:00,
2013-01-29 21:01:00,48.2,40.3,30.29,NNW,335,0.0,0.0,74,0.00,,,0.00,VWS V14.01,2013-01-30 05:01:00,
2013-01-29 21:02:00,48.2,40.3,30.29,NNW,334,0.0,0.0,74,0.00,,,0.00,VWS V14.01,2013-01-30 05:02:00,
2013-01-29 21:07:00,48.1,40.2,30.29,NNW,335,0.0,0.0,74,0.00,,,0.00,VWS V14.01,2013-01-30 05:07:00,
2013-01-29 21:12:00,48.0,40.1,30.29,NNW,335,0.0,0.0,74,0.00,,,0.00,VWS V14.01,2013-01-30 05:12:00,
2013-01-29 21:17:00,47.9,40.4,30.29,NNW,335,0.0,0.0,75,0.00,,,0.00,VWS V14.01,2013-01-30 05:17:00,
2013-01-29 21:22:00,47.8,40.3,30.29,NNW,334,0.0,0.0,75,0.00,,,0.00,VWS V14.01,2013-01-30 05:22:00,
2013-01-29 21:27:00,47.7,40.2,30.29,NNW,334,0.0,0.0,75,0.00,,,0.00,VWS V14.01,2013-01-30 05:27:00,
2013-01-29 21:32:00,47.7,40.2,30.29,NNW,335,0.0,0.0,75,0.00,,,0.00,VWS V14.01,2013-01-30 05:32:00,
2013-01-29 21:37:00,47.6,40.1,30.29,NNW,335,0.0,0.0,75,0.00,,,0.00,VWS V14.01,2013-01-30 05:37:00,
2013-01-29 21:42:00,47.4,39.9,30.29,NNW,335,0.0,0.0,75,0.00,,,0.00,VWS V14.01,2013-01-30 05:42:00,
2013-01-29 21:47:00,47.3,40.1,30.29,NNW,335,0.0,0.0,76,0.00,,,0.00,VWS V14.01,2013-01-30 05:47:00,
2013-01-29 21:52:00,47.3,40.1,30.29,NNW,335,0.0,0.0,76,0.00,,,0.00,VWS V14.01,2013-01-30 05:52:00,
2013-01-29 21:57:00,47.2,40.0,30.29,NNW,334,0.0,0.0,76,0.00,,,0.00,VWS V14.01,2013-01-30 05:57:00,
2013-01-29 22:02:00,47.2,40.0,30.29,NNW,334,0.0,0.0,76,0.00,,,0.00,VWS V14.01,2013-01-30 06:02:00,
2013-01-29 22:07:00,47.2,40.0,30.29,NNW,334,0.0,0.0,76,0.00,,,0.00,VWS V14.01,2013-01-30 06:07:00,
2013-01-29 22:12:00,47.1,40.3,30.29,NNW,334,0.0,0.0,77,0.00,,,0.00,VWS V14.01,2013-01-30 06:12:00,
2013-01-29 22:17:00,47.0,39.8,30.29,NNW,334,0.0,0.0,76,0.00,,,0.00,VWS V14.01,2013-01-30 06:17:00,
2013-01-29 22:22:00,46.9,39.7,30.29,NNW,335,0.0,0.0,76,0.00,,,0.00,VWS V14.01,2013-01-30 06:22:00,
2013-01-29 22:27:00,46.7,39.5,30.29,NNW,334,0.0,0.0,76,0.00,,,0.00,VWS V14.01,2013-01-30 06:27:00,
2013-01-29 22:32:00,46.4,39.6,30.29,NNW,335,0.0,0.0,77,0.00,,,0.00,VWS V14.01,2013-01-30 06:32:00,
2013-01-29 22:37:00,45.6,38.8,30.30,NNW,334,0.0,2.0,77,0.00,,,0.00,VWS V14.01,2013-01-30 06:37:00,
2013-01-29 22:42:00,45.1,38.7,30.30,NNW,334,0.0,2.0,78,0.00,,,0.00,VWS V14.01,2013-01-30 06:42:00,
2013-01-29 22:47:00,45.0,38.9,30.30,NNW,334,0.0,2.0,79,0.00,,,0.00,VWS V14.01,2013-01-30 06:47:00,
2013-01-29 22:52:00,44.8,38.7,30.30,NNW,334,0.0,2.0,79,0.00,,,0.00,VWS V14.01,2013-01-30 06:52:00,
2013-01-29 22:57:00,44.7,38.9,30.30,NNW,335,0.0,2.0,80,0.00,,,0.00,VWS V14.01,2013-01-30 06:57:00,
2013-01-29 23:02:00,44.6,38.8,30.30,NNW,335,0.0,2.0,80,0.00,,,0.00,VWS V14.01,2013-01-30 07:02:00,
2013-01-29 23:07:00,44.5,38.7,30.30,NNW,335,0.0,0.0,80,0.00,,,0.00,VWS V14.01,2013-01-30 07:07:00,
2013-01-29 23:12:00,44.5,38.7,30.31,NNW,335,0.0,0.0,80,0.00,,,0.00,VWS V14.01,2013-01-30 07:12:00,
2013-01-29 23:17:00,44.4,38.6,30.31,NNW,334,0.0,0.0,80,0.00,,,0.00,VWS V14.01,2013-01-30 07:17:00,
2013-01-29 23:22:00,44.3,38.5,30.31,NNW,334,0.0,0.0,80,0.00,,,0.00,VWS V14.01,2013-01-30 07:22:00,
2013-01-29 23:27:00,44.1,38.7,30.31,NNW,335,0.0,0.0,81,0.00,,,0.00,VWS V14.01,2013-01-30 07:27:00,
2013-01-29 23:32:00,44.0,38.5,30.30,NNW,334,0.0,0.0,81,0.00,,,0.00,VWS V14.01,2013-01-30 07:32:00,
2013-01-29 23:37:00,44.0,38.5,30.30,NNW,334,0.0,0.0,81,0.00,,,0.00,VWS V14.01,2013-01-30 07:37:00,
2013-01-29 23:42:00,43.9,38.5,30.31,NNW,335,0.0,0.0,81,0.00,,,0.00,VWS V14.01,2013-01-30 07:42:00,
2013-01-29 23:47:00,43.8,38.4,30.30,NNW,335,0.0,0.0,81,0.00,,,0.00,VWS V14.01,2013-01-30 07:47:00,
2013-01-29 23:52:00,43.8,38.4,30.30,NNW,334,0.0,0.0,81,0.00,,,0.00,VWS V14.01,2013-01-30 07:52:00,
2013-01-29 23:57:00,43.7,38.6,30.30,NNW,335,0.0,0.0,82,0.00,,,0.00,VWS V14.01,2013-01-30 07:57:00,